[[{"header":{"parameterUnit":"m.s-1","parameterCategory":1,"la1":30.2991,"la2":30.254,"lo1":-89.0895,"lo2":-89.0444,"dx":0.0017,"dy":0.0017,"nx":28,"ny":28,"refTime":"2022-12-02T09:00:00:Z","depth":0,"parameterNumber":2,"parameterNumberName":"U-component_of_WINDS"},"data":[0,0,0,0,0,0,0,0,0,0,0,0,0,0,0,0,0,0,0,0,0,0,0,0,0,0,0,0,0,0,0,0,0,0,0,0,0,0,0,0,0,0,0,0,0,0,0,0,0,0,0,0,0,0,0,0,0,0,-1.8381,-1.8382,0,-1.843,-1.8431,-1.8431,-1.8437,-1.8436,-1.8436,-1.8435,-1.8485,-1.8486,-1.8488,0,0,0,0,0,0,0,0,0,0,0,0,0,-1.8292,-1.8293,-1.8381,-1.8382,-1.8383,-1.843,-1.8431,-1.8431,-1.8437,-1.8436,-1.8436,-1.8435,-1.8484,-1.8486,-1.8488,0,0,0,0,0,0,0,0,0,0,0,0,0,-1.8334,-1.8294,-1.8381,-1.8391,-1.8393,-1.843,-1.8431,-1.8431,-1.8437,-1.8436,-1.8436,-1.8435,-1.8483,-1.8486,-1.8489,-1.8519,0,0,-1.8497,-1.8498,0,0,0,0,0,0,0,0,-1.8332,-1.8338,-1.8389,-1.8391,-1.8392,-1.8427,-1.8417,-1.8461,-1.8437,-1.842,-1.8435,-1.8434,-1.8466,-1.847,-1.8481,-1.8522,-1.8524,-1.8497,-1.8498,-1.85,-1.85,0,0,0,0,0,0,0,-1.8329,-1.8336,-1.8401,-1.839,-1.8392,-1.8392,-1.8398,-1.8425,-1.8446,-1.8422,-1.8422,-1.8428,-1.8467,-1.8478,-1.8482,-1.8524,-1.8497,-1.8499,-1.8501,-1.8502,-1.8591,-1.8592,0,0,0,0,0,0,-1.8324,-1.8333,-1.8399,-1.8402,-1.836,-1.8395,-1.8401,-1.8416,-1.8446,-1.845,-1.8428,-1.8428,-1.8474,-1.8479,-1.8484,-1.852,-1.85,-1.8502,-1.8504,-1.859,-1.8591,-1.8592,0,0,0,0,0,0,-1.8322,-1.833,-1.8397,-1.8368,-1.8376,-1.8397,-1.8415,-1.8418,-1.8429,-1.8451,-1.8455,-1.8436,-1.8473,-1.848,-1.851,-1.8522,-1.8503,-1.8506,-1.8589,-1.859,-1.8592,-1.8594,0,0,0,0,0,0,-1.832,-1.833,-1.8342,-1.8368,-1.8378,-1.8423,-1.8415,-1.8419,-1.8434,-1.8433,-1.846,-1.8463,-1.8473,-1.8506,-1.8512,-1.8525,-1.8508,-1.8588,-1.859,-1.8591,-1.8593,-1.8595,-1.8597,0,0,0,0,0,-1.8317,-1.8341,-1.8343,-1.835,-1.8394,-1.8424,-1.8429,-1.8441,-1.8435,-1.8447,-1.8461,-1.8462,-1.852,-1.8509,-1.8516,-1.853,-1.8588,-1.8589,-1.8591,-1.8592,-1.8595,-1.8597,0,0,0,0,0,0,-1.8316,-1.8345,-1.8347,-1.838,-1.84,-1.8425,-1.8441,-1.8443,-1.8465,-1.8464,-1.8477,-1.8482,-1.8512,-1.8524,-1.8512,-1.856,-1.8553,-1.8556,-1.8551,-1.8554,-1.8556,-1.8552,-1.851,0,0,0,0,0,-1.832,-1.8342,-1.8366,-1.8393,-1.8403,-1.842,-1.8433,-1.844,-1.8461,-1.8469,-1.8485,-1.8505,-1.8527,-1.8541,-1.8563,-1.8595,-1.86,-1.8608,-1.861,-1.8611,-1.8614,-1.863,-1.8633,-1.8598,-1.8598,-1.8598,0,0,-1.8328,-1.8346,-1.836,-1.8393,-1.8409,-1.8431,-1.8427,-1.8451,-1.8467,-1.8472,-1.8501,-1.8514,-1.8536,-1.8567,-1.8582,-1.8578,-1.8625,-1.8614,-1.8615,-1.8616,-1.8632,-1.8636,-1.8639,-1.8599,-1.8599,-1.8599,0,0,-1.8353,-1.837,-1.8394,-1.8409,-1.8433,-1.8444,-1.845,-1.8474,-1.8483,-1.8512,-1.8516,-1.8535,-1.8574,-1.8589,-1.8602,-1.8632,-1.8633,-1.8638,-1.8649,-1.8664,-1.8667,-1.867,-1.8679,-1.8682,-1.8641,-1.8641,-1.8641,0,-1.836,-1.8394,-1.8406,-1.8429,-1.8443,-1.8449,-1.8472,-1.8487,-1.8516,-1.8526,-1.8522,-1.8569,-1.8585,-1.8618,-1.8625,-1.8636,-1.8642,-1.8635,-1.8666,-1.8669,-1.8671,-1.868,-1.8684,-1.8641,-1.8641,-1.8641,-1.8641,0,-1.84,-1.8424,-1.844,-1.8468,-1.8484,-1.8507,-1.8521,-1.8536,-1.8541,-1.8552,-1.8581,-1.86,-1.8625,-1.8634,-1.8639,-1.8668,-1.8665,-1.8663,-1.8656,-1.8675,-1.8683,-1.8687,-1.8642,-1.8642,-1.8642,-1.8641,0,0,-1.8427,-1.846,-1.8466,-1.8478,-1.8504,-1.8522,-1.8545,-1.8569,-1.858,-1.86,-1.8619,-1.8651,-1.8649,-1.8664,-1.8671,-1.8685,-1.8705,-1.8681,-1.8682,-1.8684,-1.8736,-1.8736,-1.874,-1.8707,-1.8707,-1.8708,-1.8733,0,-1.8455,-1.8496,-1.8506,-1.8541,-1.8562,-1.8567,-1.8587,-1.8604,-1.8615,-1.8634,-1.8646,-1.8667,-1.8664,-1.8673,-1.8687,-1.87,-1.8715,-1.8698,-1.8723,-1.8724,-1.8717,-1.8744,-1.8745,-1.8768,-1.8737,-1.8738,-1.8738,0,-1.8492,-1.8512,-1.8549,-1.8571,-1.858,-1.8597,-1.8619,-1.8638,-1.8657,-1.8664,-1.8679,-1.8685,-1.8708,-1.87,-1.8731,-1.8719,-1.873,-1.8738,-1.8739,-1.8741,-1.8732,-1.8746,-1.8776,-1.8779,-1.8744,-1.8743,-1.8743,0,-1.8506,-1.8543,-1.8569,-1.8579,-1.8605,-1.8617,-1.8629,-1.8648,-1.8661,-1.868,-1.8689,-1.8711,-1.8722,-1.8739,-1.875,-1.8743,-1.878,-1.8773,-1.8785,-1.8785,-1.8792,-1.8791,-1.8823,-1.8801,-1.8801,-1.8801,-1.8801,0,-1.8535,-1.8557,-1.8575,-1.8591,-1.8615,-1.8627,-1.865,-1.8662,-1.8678,-1.8696,-1.8702,-1.8719,-1.8733,-1.8751,-1.876,-1.8783,-1.8789,-1.8794,-1.8796,-1.8793,-1.8792,-1.88,-1.8798,-1.8802,-1.8802,-1.8801,-1.8801,0,-1.8555,-1.8568,-1.8597,-1.8619,-1.8625,-1.8641,-1.866,-1.8675,-1.8686,-1.8708,-1.8714,-1.8731,-1.8752,-1.8765,-1.8792,-1.8798,-1.8824,-1.8826,-1.8817,-1.8818,-1.8829,-1.8827,-1.8866,-1.8871,-1.8846,-1.8847,-1.8847,0,-1.8572,-1.8589,-1.8612,-1.8625,-1.8636,-1.8656,-1.8669,-1.8681,-1.8694,-1.8717,-1.8729,-1.8751,-1.8769,-1.8803,-1.8817,-1.8838,-1.8839,-1.8851,-1.8843,-1.8838,-1.8838,-1.8836,-1.8838,-1.8853,-1.8853,-1.8853,-1.8853,0,-1.8601,-1.8606,-1.8625,-1.8646,-1.8661,-1.8678,-1.8695,-1.8705,-1.8719,-1.8734,-1.8756,-1.877,-1.8797,-1.8818,-1.884,-1.8851,-1.8854,-1.8856,-1.886,-1.8856,-1.885,-1.8852,-1.882,-1.8855,-1.8855,-1.8855,-1.8854,-1.8854,-1.8619,-1.8633,-1.8652,-1.8672,-1.8686,-1.8701,-1.8716,-1.8728,-1.8747,-1.8769,-1.8775,-1.8798,-1.8816,-1.8845,-1.8856,-1.8874,-1.8872,-1.8878,-1.8879,-1.888,-1.8879,-1.8848,-1.8878,-1.8878,-1.8878,-1.8878,-1.8878,0,-1.8646,-1.8658,-1.8677,-1.87,-1.8716,-1.8717,-1.8736,-1.8749,-1.8768,-1.8785,-1.8802,-1.8826,-1.8846,-1.8862,-1.8882,-1.8893,-1.8895,-1.8898,-1.8897,-1.8899,-1.8881,-1.8875,-1.8896,-1.8896,-1.8896,-1.8896,-1.8896,-1.8896,-1.8662,-1.8686,-1.8694,-1.8724,-1.8736,-1.8758,-1.8768,-1.8782,-1.8795,-1.8821,-1.8838,-1.8848,-1.8863,-1.8885,-1.8903,-1.8907,-1.8914,-1.8917,-1.8921,-1.8903,-1.8901,-1.8899,-1.8893,-1.8918,-1.8918,-1.8938,-1.8938,-1.8938]},{"header":{"parameterUnit":"m.s-1","parameterCategory":1,"la1":30.2991,"la2":30.254,"lo1":-89.0895,"lo2":-89.0444,"dx":0.0017,"dy":0.0017,"nx":28,"ny":28,"refTime":"2022-12-02T09:00:00:Z","depth":0,"parameterNumber":3,"parameterNumberName":"V-component_of_WINDS"},"data":[0,0,0,0,0,0,0,0,0,0,0,0,0,0,0,0,0,0,0,0,0,0,0,0,0,0,0,0,0,0,0,0,0,0,0,0,0,0,0,0,0,0,0,0,0,0,0,0,0,0,0,0,0,0,0,0,0,0,2.0308,2.031,0,2.0405,2.0406,2.0407,2.0433,2.0432,2.0431,2.0431,2.0527,2.0531,2.0534,0,0,0,0,0,0,0,0,0,0,0,0,0,2.0145,2.0148,2.0308,2.031,2.0311,2.0405,2.0406,2.0407,2.0433,2.0432,2.0431,2.0431,2.0526,2.053,2.0534,0,0,0,0,0,0,0,0,0,0,0,0,0,2.0226,2.0148,2.0308,2.0335,2.0338,2.0404,2.0406,2.0408,2.0433,2.0432,2.0431,2.043,2.0525,2.053,2.0534,2.058,0,0,2.0549,2.0551,0,0,0,0,0,0,0,0,2.0221,2.0232,2.033,2.0333,2.0337,2.0406,2.0384,2.0465,2.0433,2.0397,2.0431,2.043,2.0488,2.0495,2.0515,2.0585,2.0589,2.0549,2.0552,2.0554,2.0555,0,0,0,0,0,0,0,2.0215,2.0228,2.0346,2.0331,2.0336,2.0341,2.0352,2.0399,2.0446,2.04,2.0402,2.0413,2.0489,2.0511,2.0518,2.059,2.0549,2.0553,2.0556,2.0558,2.0703,2.0704,0,0,0,0,0,0,2.0206,2.0223,2.0343,2.0349,2.0276,2.0345,2.0357,2.0385,2.0445,2.0454,2.0414,2.0414,2.0503,2.0512,2.0521,2.058,2.0554,2.0558,2.0561,2.0702,2.0703,2.0705,0,0,0,0,0,0,2.0202,2.0216,2.034,2.0287,2.0303,2.0349,2.038,2.0387,2.0408,2.0456,2.0464,2.0427,2.0503,2.0515,2.0566,2.0583,2.056,2.0565,2.0701,2.0703,2.0704,2.0697,0,0,0,0,0,0,2.0197,2.0215,2.0233,2.0287,2.0306,2.0383,2.0381,2.0389,2.0416,2.0418,2.0471,2.0478,2.0503,2.0559,2.057,2.0589,2.0568,2.0699,2.0702,2.0703,2.0696,2.0698,2.07,0,0,0,0,0,2.0191,2.0227,2.0234,2.0248,2.033,2.0384,2.0395,2.0423,2.0418,2.0436,2.0467,2.0477,2.0579,2.0564,2.0577,2.0598,2.0699,2.0701,2.0703,2.0695,2.0697,2.07,0,0,0,0,0,0,2.0173,2.0234,2.0243,2.0297,2.0335,2.0388,2.0413,2.0425,2.0465,2.0464,2.0496,2.0508,2.0557,2.0582,2.0564,2.0646,2.0639,2.0644,2.0628,2.0631,2.0633,2.0626,2.0572,0,0,0,0,0,2.0175,2.0215,2.0266,2.0308,2.0327,2.0367,2.0391,2.041,2.045,2.0467,2.0501,2.0539,2.058,2.0607,2.0647,2.0699,2.0711,2.072,2.0722,2.0723,2.0728,2.0758,2.0762,2.0712,2.0712,2.0712,0,0,2.018,2.0218,2.0241,2.0306,2.0338,2.0378,2.038,2.0422,2.0452,2.0473,2.0524,2.055,2.0595,2.0647,2.0672,2.067,2.0744,2.0726,2.0727,2.0731,2.0761,2.0765,2.0769,2.0714,2.0714,2.0714,0,0,2.021,2.0243,2.0282,2.0314,2.0363,2.0389,2.0398,2.045,2.0468,2.052,2.0536,2.0572,2.0642,2.0673,2.0699,2.074,2.0751,2.0752,2.0764,2.0793,2.0796,2.08,2.0816,2.0821,2.0756,2.0756,2.0756,0,2.021,2.0272,2.0301,2.0343,2.0371,2.0392,2.0432,2.0461,2.052,2.0538,2.0535,2.0624,2.0655,2.0715,2.0726,2.0745,2.0757,2.0747,2.0794,2.0798,2.0801,2.0817,2.0822,2.0756,2.0756,2.0756,2.0756,0,2.027,2.0312,2.0338,2.0395,2.0426,2.0466,2.0502,2.0529,2.0544,2.057,2.0623,2.0661,2.071,2.0726,2.0741,2.0788,2.0785,2.0787,2.0781,2.0806,2.0821,2.0827,2.0756,2.0756,2.0756,2.0756,0,0,2.0292,2.0365,2.0374,2.04,2.0455,2.0488,2.0529,2.0578,2.0601,2.064,2.0676,2.0734,2.0737,2.0766,2.0784,2.0809,2.0841,2.0809,2.081,2.0814,2.0896,2.0895,2.0901,2.0848,2.0849,2.085,2.0892,0,2.0329,2.0405,2.0433,2.0495,2.0534,2.0554,2.059,2.0628,2.0653,2.069,2.0717,2.0759,2.0758,2.0776,2.0801,2.0832,2.0858,2.0829,2.0881,2.0883,2.0871,2.0909,2.0908,2.0946,2.0898,2.0899,2.09,0,2.0384,2.0425,2.0491,2.0541,2.0559,2.0591,2.0638,2.0673,2.0715,2.0732,2.0764,2.0781,2.0824,2.0815,2.0875,2.0855,2.0878,2.0896,2.0898,2.0905,2.0894,2.0918,2.0959,2.0965,2.0909,2.0909,2.0908,0,2.0395,2.0466,2.0515,2.0537,2.0597,2.0619,2.0644,2.0686,2.0713,2.0754,2.0772,2.0816,2.0841,2.0875,2.0903,2.0894,2.0962,2.0954,2.0977,2.0976,2.0991,2.099,2.1038,2.1004,2.1004,2.1004,2.1004,0,2.0434,2.0474,2.0521,2.0551,2.0597,2.0627,2.0671,2.0698,2.0735,2.077,2.0789,2.0822,2.0857,2.0895,2.0917,2.0964,2.0975,2.0989,2.0995,2.0988,2.0987,2.1005,2.1003,2.1005,2.1005,2.1005,2.1004,0,2.0455,2.0488,2.0543,2.0594,2.0608,2.064,2.0684,2.0714,2.0739,2.0784,2.0796,2.0837,2.0882,2.0913,2.097,2.0985,2.1037,2.1041,2.1023,2.1026,2.1047,2.1045,2.1109,2.1119,2.1077,2.1077,2.1078,0,2.0479,2.051,2.0566,2.0591,2.0617,2.0658,2.0686,2.0717,2.0746,2.0796,2.082,2.0866,2.0905,2.0976,2.101,2.1054,2.1061,2.108,2.1067,2.106,2.1062,2.106,2.1064,2.1082,2.1082,2.1083,2.1083,0,2.0518,2.0533,2.0573,2.062,2.0653,2.0691,2.0728,2.0748,2.0785,2.0816,2.0863,2.0893,2.0952,2.0998,2.1045,2.1071,2.1083,2.1086,2.1094,2.1088,2.1077,2.1084,2.1029,2.1085,2.1085,2.1085,2.1085,2.1084,2.0542,2.0571,2.0615,2.0659,2.0691,2.0726,2.0757,2.0787,2.0826,2.0877,2.0893,2.0941,2.0982,2.1047,2.1074,2.1112,2.111,2.1121,2.1124,2.1127,2.1127,2.1069,2.112,2.112,2.112,2.112,2.112,0,2.0584,2.0613,2.0653,2.0706,2.0741,2.0749,2.0792,2.082,2.0863,2.09,2.0938,2.0992,2.1036,2.1074,2.112,2.1143,2.115,2.1154,2.1153,2.1159,2.1125,2.1115,2.1148,2.1148,2.1148,2.1148,2.1148,2.1148,2.061,2.066,2.0679,2.0745,2.0773,2.0822,2.0845,2.0877,2.0908,2.0967,2.1004,2.1028,2.1066,2.1115,2.1156,2.1166,2.1182,2.1185,2.1196,2.1164,2.1161,2.1158,2.1148,2.1188,2.1188,2.1227,2.1228,2.1228]}]]